UAL360 KDEN-KSEA

Flight info

Callsign UAL360
Flight time 2h 29m
Altitude 38000
Route DDRTH1 DDRTH IDA PDT CHINS5
Aircraft B38M/M-SDE1FGHILORVWXY/HB1

Departure

Time 2026-05-08 02:32
Airport Denver International Airport (KDEN)

Arrival

Time 2026-05-08 05:01
Airport Seattle–Tacoma International Airport (KSEA)
Time Latitude Longitude Altitude Speed Heading
2026-05-08 02:02 39.85947 -104.67298 5368 ft 0 kts 180°
2026-05-08 02:17 39.85962 -104.67298 5367 ft 4 kts 180°
2026-05-08 02:17 39.85988 -104.67298 5366 ft 2 kts 180°
2026-05-08 02:18 39.86001 -104.67298 5366 ft 4 kts 180°
2026-05-08 02:18 39.86027 -104.67298 5367 ft 2 kts 180°
2026-05-08 02:18 39.86029 -104.67298 5367 ft 2 kts 180°
2026-05-08 02:23 39.86028 -104.67298 5367 ft 0 kts 180°
2026-05-08 02:24 39.86021 -104.67307 5365 ft 3 kts 238°
2026-05-08 02:24 39.86015 -104.67353 5367 ft 6 kts 270°
2026-05-08 02:24 39.86013 -104.67412 5368 ft 7 kts 278°
2026-05-08 02:24 39.86020 -104.67477 5368 ft 8 kts 265°
2026-05-08 02:25 39.86039 -104.67537 5368 ft 9 kts 304°
2026-05-08 02:25 39.86068 -104.67646 5367 ft 16 kts 274°
2026-05-08 02:25 39.86069 -104.67799 5368 ft 18 kts 271°
2026-05-08 02:25 39.86071 -104.67963 5368 ft 18 kts 271°
2026-05-08 02:26 39.86062 -104.68129 5366 ft 19 kts 255°
2026-05-08 02:26 39.86033 -104.68288 5366 ft 19 kts 269°
2026-05-08 02:26 39.85988 -104.68392 5367 ft 14 kts 190°
2026-05-08 02:26 39.85891 -104.68391 5367 ft 14 kts 181°
2026-05-08 02:27 39.85788 -104.68393 5366 ft 15 kts 181°
2026-05-08 02:27 39.85681 -104.68393 5367 ft 16 kts 180°
2026-05-08 02:27 39.85570 -104.68398 5367 ft 16 kts 182°
2026-05-08 02:27 39.85453 -104.68403 5366 ft 17 kts 181°
2026-05-08 02:28 39.85380 -104.68407 5367 ft 10 kts 181°
2026-05-08 02:28 39.85297 -104.68401 5367 ft 16 kts 178°
2026-05-08 02:28 39.85207 -104.68477 5368 ft 19 kts 273°
2026-05-08 02:28 39.85204 -104.68651 5368 ft 20 kts 266°
2026-05-08 02:29 39.85200 -104.68845 5367 ft 23 kts 268°
2026-05-08 02:29 39.85197 -104.69056 5367 ft 23 kts 268°
2026-05-08 02:29 39.85199 -104.69274 5365 ft 25 kts 272°
2026-05-08 02:29 39.85202 -104.69453 5367 ft 12 kts 270°
2026-05-08 02:30 39.85203 -104.69569 5368 ft 13 kts 270°
2026-05-08 02:30 39.85240 -104.69658 5368 ft 10 kts
2026-05-08 02:30 39.85251 -104.69657 5367 ft 0 kts
2026-05-08 02:30 39.85254 -104.69657 5366 ft 4 kts
2026-05-08 02:31 39.85433 -104.69654 5367 ft 61 kts
2026-05-08 02:31 39.86098 -104.69647 5370 ft 129 kts
2026-05-08 02:31 39.87197 -104.69634 5383 ft 184 kts
2026-05-08 02:31 39.88531 -104.69619 6018 ft 197 kts 360°
2026-05-08 02:32 39.89920 -104.69593 6831 ft 203 kts 357°
2026-05-08 02:32 39.91374 -104.69574 7456 ft 220 kts 357°
2026-05-08 02:32 39.92999 -104.69552 7828 ft 246 kts 358°
2026-05-08 02:32 39.94743 -104.69518 8567 ft 256 kts 357°
2026-05-08 02:33 39.96563 -104.69497 9333 ft 266 kts 356°
2026-05-08 02:33 39.98458 -104.69468 9989 ft 279 kts 357°
2026-05-08 02:33 40.00421 -104.69404 9972 ft 283 kts 358°
2026-05-08 02:33 40.02385 -104.69342 9954 ft 282 kts 358°
2026-05-08 02:34 40.04338 -104.69686 10245 ft 289 kts 337°
2026-05-08 02:34 40.06259 -104.70683 10710 ft 307 kts 336°
2026-05-08 02:34 40.08304 -104.71743 10743 ft 323 kts 337°
2026-05-08 02:34 40.10427 -104.72799 11410 ft 328 kts 336°
2026-05-08 02:35 40.12565 -104.73878 12257 ft 331 kts 336°
2026-05-08 02:35 40.14721 -104.74975 13117 ft 334 kts 336°
2026-05-08 02:35 40.16900 -104.76089 13956 ft 338 kts 336°
2026-05-08 02:35 40.19099 -104.77216 14711 ft 341 kts 336°
2026-05-08 02:36 40.21320 -104.78355 15491 ft 345 kts 336°
2026-05-08 02:36 40.23564 -104.79507 16234 ft 348 kts 335°
2026-05-08 02:36 40.25830 -104.80672 16977 ft 352 kts 335°
2026-05-08 02:36 40.28119 -104.81848 17687 ft 355 kts 335°
2026-05-08 02:37 40.30433 -104.83039 18378 ft 359 kts 335°
2026-05-08 02:37 40.32770 -104.84237 18972 ft 362 kts 335°
2026-05-08 02:37 40.35128 -104.85445 19580 ft 365 kts 335°
2026-05-08 02:37 40.37508 -104.86666 20160 ft 369 kts 335°
2026-05-08 02:38 40.39905 -104.87898 20764 ft 372 kts 335°
2026-05-08 02:38 40.42327 -104.89142 21326 ft 376 kts 335°
2026-05-08 02:38 40.44772 -104.90399 21881 ft 379 kts 335°
2026-05-08 02:38 40.47238 -104.91668 22449 ft 383 kts 335°
2026-05-08 02:39 40.49729 -104.92950 22963 ft 386 kts 335°
2026-05-08 02:39 40.52243 -104.94247 23476 ft 390 kts 335°
2026-05-08 02:39 40.54777 -104.95554 23967 ft 392 kts 335°
2026-05-08 02:39 40.57324 -104.96870 24424 ft 395 kts 335°
2026-05-08 02:40 40.59854 -104.98177 24888 ft 397 kts 335°
2026-05-08 02:40 40.62436 -104.99512 25322 ft 400 kts 335°
2026-05-08 02:40 40.65032 -105.00855 25815 ft 402 kts 335°
2026-05-08 02:40 40.67641 -105.02207 26261 ft 404 kts 335°
2026-05-08 02:41 40.70263 -105.03566 26697 ft 406 kts 335°
2026-05-08 02:41 40.72899 -105.04934 27121 ft 409 kts 335°
2026-05-08 02:41 40.75471 -105.06512 27505 ft 406 kts 323°
2026-05-08 02:41 40.77574 -105.08957 27912 ft 404 kts 309°
2026-05-08 02:42 40.79380 -105.11811 28271 ft 407 kts 308°
2026-05-08 02:42 40.81183 -105.14709 28660 ft 409 kts 308°
2026-05-08 02:42 40.82976 -105.17641 29070 ft 411 kts 308°
2026-05-08 02:42 40.84765 -105.20603 29447 ft 414 kts 307°
2026-05-08 02:43 40.86558 -105.23590 29846 ft 416 kts 307°
2026-05-08 02:43 40.88356 -105.26596 30194 ft 418 kts 307°
2026-05-08 02:43 40.90161 -105.29617 30484 ft 420 kts 307°
2026-05-08 02:43 40.91975 -105.32658 30804 ft 422 kts 307°
2026-05-08 02:44 40.93794 -105.35711 31194 ft 422 kts 307°
2026-05-08 02:44 40.95605 -105.38752 31676 ft 420 kts 308°
2026-05-08 02:44 40.97409 -105.41787 32113 ft 419 kts 308°
2026-05-08 02:44 40.99208 -105.44815 32563 ft 417 kts 308°
2026-05-08 02:45 41.00997 -105.47829 33026 ft 416 kts 308°
2026-05-08 02:45 41.02779 -105.50834 33497 ft 414 kts 308°
2026-05-08 02:45 41.04551 -105.53826 33962 ft 412 kts 308°
2026-05-08 02:45 41.06317 -105.56810 34353 ft 411 kts 308°
2026-05-08 02:46 41.08076 -105.59786 34723 ft 410 kts 308°
2026-05-08 02:46 41.09832 -105.62759 35084 ft 409 kts 308°
2026-05-08 02:46 41.11581 -105.65723 35438 ft 407 kts 308°
2026-05-08 02:46 41.13320 -105.68672 35854 ft 405 kts 308°
2026-05-08 02:47 41.15052 -105.71614 36192 ft 404 kts 308°
2026-05-08 02:47 41.16778 -105.74547 36517 ft 403 kts 308°
2026-05-08 02:47 41.18502 -105.77480 36810 ft 402 kts 308°
2026-05-08 02:47 41.20221 -105.80407 37092 ft 402 kts 308°
2026-05-08 02:48 41.21936 -105.83330 37378 ft 401 kts 308°
2026-05-08 02:48 41.23648 -105.86252 37654 ft 400 kts 307°
2026-05-08 02:48 41.25356 -105.89168 37912 ft 400 kts 307°
2026-05-08 02:48 41.27064 -105.92087 38043 ft 400 kts 307°
2026-05-08 02:49 41.30448 -105.97879 37976 ft 398 kts 307°
2026-05-08 02:49 41.33863 -106.03736 37960 ft 397 kts 308°
2026-05-08 02:50 41.37223 -106.09510 37978 ft 397 kts 308°
2026-05-08 02:50 41.40602 -106.15327 37967 ft 397 kts 308°
2026-05-08 02:51 41.43982 -106.21153 37974 ft 397 kts 308°
2026-05-08 02:51 41.46991 -106.27296 37989 ft 396 kts 298°
2026-05-08 02:52 41.49551 -106.33807 37976 ft 397 kts 299°
2026-05-08 02:52 41.52103 -106.40341 37979 ft 398 kts 299°
2026-05-08 02:53 41.54653 -106.46893 37980 ft 397 kts 299°
2026-05-08 02:53 41.57197 -106.53447 37980 ft 397 kts 299°
2026-05-08 02:54 41.59736 -106.60002 37975 ft 397 kts 299°
2026-05-08 02:54 41.62272 -106.66564 37977 ft 398 kts 299°
2026-05-08 02:55 41.66075 -106.76433 37972 ft 399 kts 299°
2026-05-08 02:56 41.68611 -106.83033 37973 ft 399 kts 299°
2026-05-08 02:56 41.71126 -106.89592 37999 ft 398 kts 299°
2026-05-08 02:57 41.73653 -106.96199 38014 ft 399 kts 299°
2026-05-08 02:57 41.76193 -107.02854 38034 ft 399 kts 299°
2026-05-08 02:58 41.78710 -107.09467 38042 ft 397 kts 300°
2026-05-08 02:58 41.81217 -107.16064 38045 ft 397 kts 300°
2026-05-08 02:59 41.83719 -107.22666 38044 ft 397 kts 300°
2026-05-08 02:59 41.86202 -107.29232 38044 ft 397 kts 300°
2026-05-08 03:00 41.88695 -107.35840 38022 ft 397 kts 300°
2026-05-08 03:00 41.91183 -107.42450 37999 ft 395 kts 300°
2026-05-08 03:01 41.93654 -107.49029 37987 ft 394 kts 300°
2026-05-08 03:01 41.96118 -107.55604 37973 ft 394 kts 300°
2026-05-08 03:02 41.98581 -107.62193 37939 ft 394 kts 300°
2026-05-08 03:02 42.01037 -107.68780 37939 ft 394 kts 300°
2026-05-08 03:03 42.03491 -107.75375 37901 ft 394 kts 301°
2026-05-08 03:03 42.05922 -107.81922 37931 ft 389 kts 301°
2026-05-08 03:04 42.08333 -107.88430 37931 ft 389 kts 301°
2026-05-08 03:04 42.10741 -107.94946 37935 ft 388 kts 301°
2026-05-08 03:05 42.13145 -108.01466 37933 ft 389 kts 301°
2026-05-08 03:05 42.15545 -108.07990 37928 ft 389 kts 301°
2026-05-08 03:06 42.17537 -108.13417 37920 ft 389 kts 301°
2026-05-08 03:06 42.19929 -108.19946 37907 ft 388 kts 300°
2026-05-08 03:07 42.22315 -108.26475 37916 ft 388 kts 300°
2026-05-08 03:07 42.24700 -108.33016 37914 ft 388 kts 300°
2026-05-08 03:08 42.27079 -108.39556 37915 ft 388 kts 300°
2026-05-08 03:08 42.29453 -108.46097 37903 ft 387 kts 301°
2026-05-08 03:09 42.31813 -108.52613 37921 ft 386 kts 301°
2026-05-08 03:09 42.34161 -108.59113 37906 ft 384 kts 301°
2026-05-08 03:10 42.36504 -108.65614 37905 ft 385 kts 301°
2026-05-08 03:10 42.38842 -108.72116 37914 ft 385 kts 301°
2026-05-08 03:11 42.41178 -108.78625 37877 ft 385 kts 301°
2026-05-08 03:11 42.43511 -108.85144 37918 ft 385 kts 301°
2026-05-08 03:12 42.45841 -108.91668 37932 ft 385 kts 301°
2026-05-08 03:12 42.48163 -108.98187 37930 ft 384 kts 301°
2026-05-08 03:13 42.50482 -109.04711 37936 ft 384 kts 301°
2026-05-08 03:13 42.52798 -109.11242 37940 ft 384 kts 301°
2026-05-08 03:14 42.55109 -109.17774 37937 ft 384 kts 301°
2026-05-08 03:14 42.57414 -109.24303 37943 ft 384 kts 301°
2026-05-08 03:15 42.59714 -109.30834 37952 ft 383 kts 301°
2026-05-08 03:15 42.62006 -109.37357 37951 ft 383 kts 301°
2026-05-08 03:16 42.64279 -109.43843 37953 ft 383 kts 301°
2026-05-08 03:16 42.66556 -109.50357 37961 ft 379 kts 301°
2026-05-08 03:17 42.68804 -109.56802 37958 ft 377 kts 301°
2026-05-08 03:17 42.71048 -109.63247 37976 ft 377 kts 301°
2026-05-08 03:18 42.73286 -109.69695 38096 ft 377 kts 301°
2026-05-08 03:18 42.75520 -109.76144 38110 ft 377 kts 301°
2026-05-08 03:19 42.77752 -109.82601 38080 ft 377 kts 301°
2026-05-08 03:19 42.79988 -109.89088 38108 ft 379 kts 301°
2026-05-08 03:20 42.82219 -109.95574 38101 ft 378 kts 301°
2026-05-08 03:20 42.84448 -110.02069 38083 ft 379 kts 301°
2026-05-08 03:21 42.86676 -110.08576 38047 ft 379 kts 301°
2026-05-08 03:21 42.88901 -110.15090 37993 ft 379 kts 301°
2026-05-08 03:22 42.91121 -110.21606 37993 ft 379 kts 301°
2026-05-08 03:22 42.93338 -110.28130 37983 ft 379 kts 301°
2026-05-08 03:23 42.95550 -110.34655 37998 ft 379 kts 301°
2026-05-08 03:23 42.97759 -110.41185 38001 ft 378 kts 301°
2026-05-08 03:24 42.99964 -110.47717 37985 ft 379 kts 301°
2026-05-08 03:24 43.02163 -110.54241 37988 ft 378 kts 301°
2026-05-08 03:25 43.04353 -110.60769 38029 ft 379 kts 301°
2026-05-08 03:25 43.06529 -110.67265 38022 ft 378 kts 301°
2026-05-08 03:26 43.08717 -110.73811 38012 ft 378 kts 301°
2026-05-08 03:26 43.10895 -110.80345 38001 ft 377 kts 301°
2026-05-08 03:27 43.13071 -110.86883 37962 ft 379 kts 300°
2026-05-08 03:27 43.15250 -110.93457 37962 ft 378 kts 301°
2026-05-08 03:28 43.17418 -111.00003 38061 ft 380 kts 300°
2026-05-08 03:28 43.18509 -111.03306 37953 ft 379 kts 300°
2026-05-08 03:28 43.19595 -111.06594 37989 ft 379 kts 300°
2026-05-08 03:29 43.21768 -111.13194 37975 ft 379 kts 300°
2026-05-08 03:29 43.23935 -111.19777 37957 ft 379 kts 300°
2026-05-08 03:30 43.27174 -111.29674 37984 ft 379 kts 300°
2026-05-08 03:31 43.31492 -111.42916 37979 ft 382 kts 299°
2026-05-08 03:32 43.34740 -111.52909 37954 ft 382 kts 300°
2026-05-08 03:32 43.36901 -111.59575 37943 ft 382 kts 300°
2026-05-08 03:33 43.39058 -111.66247 37936 ft 382 kts 300°
2026-05-08 03:33 43.41211 -111.72926 37946 ft 382 kts 300°
2026-05-08 03:34 43.43362 -111.79611 37941 ft 382 kts 299°
2026-05-08 03:34 43.45507 -111.86295 37954 ft 382 kts 300°
2026-05-08 03:35 43.47639 -111.92955 37962 ft 383 kts 300°
2026-05-08 03:35 43.49783 -111.99671 37971 ft 383 kts 300°
2026-05-08 03:36 43.51953 -112.06366 37968 ft 381 kts 302°
2026-05-08 03:36 43.54317 -112.12906 37973 ft 381 kts 302°
2026-05-08 03:37 43.56668 -112.19460 37963 ft 381 kts 302°
2026-05-08 03:37 43.59008 -112.26005 37925 ft 379 kts 302°
2026-05-08 03:38 43.61337 -112.32531 37882 ft 380 kts 302°
2026-05-08 03:38 43.63662 -112.39066 37870 ft 379 kts 302°
2026-05-08 03:39 43.65987 -112.45613 37840 ft 381 kts 302°
2026-05-08 03:39 43.68326 -112.52218 37855 ft 383 kts 301°
2026-05-08 03:40 43.70658 -112.58816 37862 ft 382 kts 301°
2026-05-08 03:40 43.72981 -112.65406 37859 ft 381 kts 301°
2026-05-08 03:41 43.75299 -112.71998 37853 ft 381 kts 301°
2026-05-08 03:41 43.77615 -112.78600 37854 ft 381 kts 301°
2026-05-08 03:42 43.79927 -112.85206 37856 ft 381 kts 301°
2026-05-08 03:42 43.82235 -112.91815 37860 ft 381 kts 301°
2026-05-08 03:43 43.84539 -112.98431 37858 ft 381 kts 301°
2026-05-08 03:43 43.86843 -113.05061 37872 ft 383 kts 301°
2026-05-08 03:44 43.89151 -113.11722 37871 ft 383 kts 301°
2026-05-08 03:44 43.91455 -113.18386 37873 ft 383 kts 301°
2026-05-08 03:45 43.93757 -113.25059 37868 ft 384 kts 301°
2026-05-08 03:45 43.96064 -113.31749 37818 ft 385 kts 301°
2026-05-08 03:45 43.97210 -113.35104 37953 ft 386 kts 300°
2026-05-08 03:46 43.98361 -113.38473 37848 ft 385 kts 300°
2026-05-08 03:46 44.00668 -113.45182 37880 ft 385 kts 300°
2026-05-08 03:47 44.02968 -113.51904 37858 ft 385 kts 301°
2026-05-08 03:47 44.05281 -113.58617 37875 ft 385 kts 301°
2026-05-08 03:48 44.07557 -113.65399 37896 ft 387 kts 301°
2026-05-08 03:48 44.09837 -113.72153 37901 ft 386 kts 300°
2026-05-08 03:49 44.12123 -113.78910 37892 ft 386 kts 300°
2026-05-08 03:49 44.14388 -113.85629 37905 ft 386 kts 300°
2026-05-08 03:50 44.16661 -113.92386 37910 ft 386 kts 300°
2026-05-08 03:50 44.18932 -113.99152 37903 ft 386 kts 300°
2026-05-08 03:51 44.21204 -114.05935 37900 ft 386 kts 300°
2026-05-08 03:51 44.23470 -114.12728 37889 ft 386 kts 300°
2026-05-08 03:52 44.25733 -114.19530 37913 ft 388 kts 299°
2026-05-08 03:52 44.27999 -114.26351 37919 ft 387 kts 300°
2026-05-08 03:53 44.30261 -114.33176 37930 ft 387 kts 299°
2026-05-08 03:53 44.32134 -114.38839 37931 ft 387 kts 299°
2026-05-08 03:54 44.34380 -114.45656 37922 ft 386 kts 299°
2026-05-08 03:54 44.36622 -114.52480 37931 ft 386 kts 299°
2026-05-08 03:55 44.38864 -114.59298 37910 ft 385 kts 299°
2026-05-08 03:55 44.41099 -114.66135 37923 ft 387 kts 299°
2026-05-08 03:56 44.43326 -114.72960 37937 ft 387 kts 298°
2026-05-08 03:56 44.45549 -114.79844 37929 ft 389 kts 298°
2026-05-08 03:57 44.47813 -114.86734 37904 ft 391 kts 299°
2026-05-08 03:57 44.48929 -114.90185 38023 ft 388 kts 298°
2026-05-08 03:57 44.50040 -114.93658 37823 ft 391 kts 299°
2026-05-08 03:57 44.51161 -114.97095 37996 ft 387 kts 300°
2026-05-08 03:58 44.52497 -115.00350 37965 ft 385 kts 304°
2026-05-08 03:58 44.53708 -115.03722 37933 ft 393 kts 293°
2026-05-08 03:58 44.54588 -115.07338 37913 ft 391 kts 297°
2026-05-08 03:58 44.55769 -115.10730 38016 ft 385 kts 298°
2026-05-08 03:59 44.56814 -115.14231 37839 ft 390 kts 297°
2026-05-08 03:59 44.57863 -115.17720 37987 ft 388 kts 297°
2026-05-08 03:59 44.58941 -115.21205 37996 ft 391 kts 298°
2026-05-08 04:00 44.61294 -115.28674 37997 ft 390 kts 297°
2026-05-08 04:00 44.63469 -115.35610 37975 ft 388 kts 299°
2026-05-08 04:01 44.65710 -115.42574 37979 ft 392 kts 299°
2026-05-08 04:01 44.67934 -115.49569 37998 ft 393 kts 298°
2026-05-08 04:02 44.70151 -115.56582 37998 ft 393 kts 297°
2026-05-08 04:02 44.72360 -115.63614 38012 ft 393 kts 297°
2026-05-08 04:03 44.74573 -115.70654 37970 ft 393 kts 297°
2026-05-08 04:03 44.77886 -115.81217 37995 ft 393 kts 298°
2026-05-08 04:04 44.80092 -115.88263 38046 ft 394 kts 297°
2026-05-08 04:04 44.82288 -115.95315 38053 ft 395 kts 297°
2026-05-08 04:05 44.84495 -116.02429 38091 ft 396 kts 297°
2026-05-08 04:05 44.86695 -116.09532 38091 ft 395 kts 297°
2026-05-08 04:06 44.88891 -116.16644 38089 ft 396 kts 297°
2026-05-08 04:06 44.91068 -116.23711 38101 ft 396 kts 297°
2026-05-08 04:07 44.93253 -116.30825 38017 ft 395 kts 297°
2026-05-08 04:07 44.95434 -116.37946 38022 ft 395 kts 297°
2026-05-08 04:08 44.97608 -116.45067 38012 ft 395 kts 296°
2026-05-08 04:08 44.99780 -116.52196 38017 ft 395 kts 296°
2026-05-08 04:09 45.01953 -116.59353 38016 ft 398 kts 296°
2026-05-08 04:09 45.04136 -116.66561 38025 ft 399 kts 296°
2026-05-08 04:10 45.06311 -116.73764 38026 ft 398 kts 296°
2026-05-08 04:10 45.08482 -116.80971 37996 ft 398 kts 296°
2026-05-08 04:11 45.10652 -116.88198 38021 ft 399 kts 296°
2026-05-08 04:11 45.12819 -116.95433 38032 ft 399 kts 296°
2026-05-08 04:12 45.14979 -117.02669 38027 ft 398 kts 296°
2026-05-08 04:12 45.17133 -117.09905 38039 ft 399 kts 296°
2026-05-08 04:13 45.19285 -117.17153 38004 ft 399 kts 295°
2026-05-08 04:13 45.20362 -117.20794 38110 ft 401 kts 295°
2026-05-08 04:13 45.21445 -117.24444 38100 ft 402 kts 295°
2026-05-08 04:14 45.23601 -117.31753 38140 ft 402 kts 295°
2026-05-08 04:14 45.25750 -117.39065 38110 ft 401 kts 295°
2026-05-08 04:15 45.27896 -117.46378 38084 ft 401 kts 295°
2026-05-08 04:15 45.30039 -117.53692 38111 ft 402 kts 295°
2026-05-08 04:16 45.32172 -117.61013 38054 ft 400 kts 295°
2026-05-08 04:16 45.34302 -117.68338 38050 ft 401 kts 294°
2026-05-08 04:17 45.36428 -117.75671 38061 ft 401 kts 295°
2026-05-08 04:17 45.38190 -117.81762 38056 ft 401 kts 295°
2026-05-08 04:18 45.40306 -117.89098 38053 ft 401 kts 294°
2026-05-08 04:18 45.42760 -117.97634 38058 ft 401 kts 295°
2026-05-08 04:19 45.44865 -118.04981 38059 ft 401 kts 294°
2026-05-08 04:19 45.46626 -118.11144 38051 ft 401 kts 294°
2026-05-08 04:20 45.48727 -118.18517 38055 ft 401 kts 294°
2026-05-08 04:20 45.50808 -118.25837 38033 ft 401 kts 294°
2026-05-08 04:21 45.52902 -118.33218 38036 ft 401 kts 294°
2026-05-08 04:21 45.54990 -118.40606 38045 ft 402 kts 294°
2026-05-08 04:22 45.57079 -118.48017 38045 ft 402 kts 294°
2026-05-08 04:22 45.59163 -118.55427 38024 ft 402 kts 294°
2026-05-08 04:23 45.61242 -118.62847 38014 ft 402 kts 294°
2026-05-08 04:23 45.63313 -118.70256 38013 ft 402 kts 294°
2026-05-08 04:24 45.65380 -118.77671 38010 ft 402 kts 294°
2026-05-08 04:24 45.67445 -118.85105 38008 ft 402 kts 294°
2026-05-08 04:25 45.69552 -118.92507 37994 ft 401 kts 300°
2026-05-08 04:25 45.72893 -118.98827 37955 ft 400 kts 309°
2026-05-08 04:26 45.76385 -119.04840 37983 ft 400 kts 310°
2026-05-08 04:26 45.79976 -119.10936 37985 ft 400 kts 310°
2026-05-08 04:27 45.83571 -119.17027 37956 ft 401 kts 310°
2026-05-08 04:27 45.87181 -119.23159 37990 ft 403 kts 310°
2026-05-08 04:28 45.90768 -119.29260 37985 ft 402 kts 310°
2026-05-08 04:28 45.94373 -119.35409 37964 ft 402 kts 310°
2026-05-08 04:29 45.97976 -119.41566 37960 ft 403 kts 309°
2026-05-08 04:29 46.01576 -119.47732 37953 ft 403 kts 309°
2026-05-08 04:30 46.05170 -119.53902 37942 ft 402 kts 309°
2026-05-08 04:30 46.08758 -119.60075 37935 ft 402 kts 309°
2026-05-08 04:31 46.12340 -119.66250 37940 ft 402 kts 309°
2026-05-08 04:31 46.15921 -119.72437 37935 ft 402 kts 309°
2026-05-08 04:32 46.19497 -119.78632 37937 ft 401 kts 309°
2026-05-08 04:32 46.23062 -119.84819 37932 ft 401 kts 309°
2026-05-08 04:33 46.26626 -119.91018 37925 ft 401 kts 309°
2026-05-08 04:33 46.30190 -119.97230 37937 ft 401 kts 309°
2026-05-08 04:34 46.33747 -120.03446 37938 ft 401 kts 309°
2026-05-08 04:34 46.37300 -120.09668 37924 ft 401 kts 309°
2026-05-08 04:35 46.40849 -120.15896 37931 ft 401 kts 309°
2026-05-08 04:35 46.44395 -120.22134 37949 ft 401 kts 309°
2026-05-08 04:36 46.47937 -120.28377 37947 ft 401 kts 309°
2026-05-08 04:36 46.51475 -120.34629 37964 ft 400 kts 308°
2026-05-08 04:37 46.55002 -120.40876 37738 ft 398 kts 308°
2026-05-08 04:37 46.56747 -120.44006 36896 ft 400 kts 305°
2026-05-08 04:37 46.58327 -120.47352 36042 ft 403 kts 304°
2026-05-08 04:38 46.59919 -120.50714 35365 ft 403 kts 303°
2026-05-08 04:38 46.61514 -120.54056 34770 ft 402 kts 303°
2026-05-08 04:38 46.63109 -120.57384 34135 ft 402 kts 303°
2026-05-08 04:38 46.64706 -120.60714 33293 ft 410 kts 303°
2026-05-08 04:39 46.66347 -120.64138 32435 ft 415 kts 303°
2026-05-08 04:39 46.68008 -120.67607 31734 ft 421 kts 303°
2026-05-08 04:39 46.69689 -120.71123 31199 ft 425 kts 303°
2026-05-08 04:39 46.71383 -120.74670 30681 ft 428 kts 303°
2026-05-08 04:40 46.73081 -120.78229 30095 ft 427 kts 303°
2026-05-08 04:40 46.74770 -120.81773 29407 ft 424 kts 303°
2026-05-08 04:40 46.76437 -120.85276 28803 ft 417 kts 303°
2026-05-08 04:40 46.78081 -120.88737 28249 ft 412 kts 303°
2026-05-08 04:41 46.79705 -120.92160 27675 ft 408 kts 303°
2026-05-08 04:41 46.81312 -120.95557 27122 ft 406 kts 303°
2026-05-08 04:41 46.82909 -120.98951 26495 ft 404 kts 303°
2026-05-08 04:41 46.84490 -121.02316 25999 ft 400 kts 303°
2026-05-08 04:42 46.86056 -121.05651 25464 ft 397 kts 303°
2026-05-08 04:42 46.87611 -121.08967 24928 ft 394 kts 302°
2026-05-08 04:42 46.89154 -121.12262 24392 ft 392 kts 302°
2026-05-08 04:42 46.90691 -121.15548 23846 ft 391 kts 302°
2026-05-08 04:43 46.92224 -121.18828 23313 ft 389 kts 302°
2026-05-08 04:43 46.93750 -121.22096 22685 ft 388 kts 302°
2026-05-08 04:43 46.95261 -121.25337 22177 ft 384 kts 302°
2026-05-08 04:43 46.96761 -121.28559 21654 ft 381 kts 302°
2026-05-08 04:44 46.98244 -121.31756 21188 ft 378 kts 301°
2026-05-08 04:44 46.99693 -121.34948 20629 ft 376 kts 303°
2026-05-08 04:44 47.01168 -121.38077 20219 ft 371 kts 303°
2026-05-08 04:44 47.02621 -121.41193 19747 ft 369 kts 302°
2026-05-08 04:45 47.04049 -121.44268 19558 ft 360 kts 302°
2026-05-08 04:45 47.05437 -121.47266 19323 ft 351 kts 303°
2026-05-08 04:45 47.06791 -121.50191 19146 ft 342 kts 302°
2026-05-08 04:45 47.08117 -121.53070 18747 ft 341 kts 302°
2026-05-08 04:46 47.09438 -121.55937 18428 ft 338 kts 302°
2026-05-08 04:46 47.10750 -121.58788 18027 ft 336 kts 302°
2026-05-08 04:46 47.12054 -121.61621 17631 ft 334 kts 302°
2026-05-08 04:46 47.13345 -121.64430 17266 ft 330 kts 302°
2026-05-08 04:47 47.14621 -121.67211 16901 ft 327 kts 302°
2026-05-08 04:47 47.15887 -121.69973 16545 ft 324 kts 302°
2026-05-08 04:47 47.17142 -121.72711 16185 ft 322 kts 302°
2026-05-08 04:47 47.18389 -121.75436 15822 ft 320 kts 302°
2026-05-08 04:48 47.19627 -121.78142 15464 ft 318 kts 302°
2026-05-08 04:48 47.20858 -121.80838 15130 ft 316 kts 302°
2026-05-08 04:48 47.22093 -121.83547 14852 ft 321 kts 302°
2026-05-08 04:48 47.23347 -121.86295 14539 ft 325 kts 302°
2026-05-08 04:49 47.24608 -121.89063 14235 ft 326 kts 302°
2026-05-08 04:49 47.25851 -121.91791 13975 ft 325 kts 302°
2026-05-08 04:49 47.27107 -121.94558 13672 ft 324 kts 302°
2026-05-08 04:49 47.28375 -121.97351 13388 ft 323 kts 302°
2026-05-08 04:50 47.29622 -122.00100 13111 ft 322 kts 302°
2026-05-08 04:50 47.30860 -122.02832 12858 ft 318 kts 302°
2026-05-08 04:50 47.32060 -122.05483 12604 ft 312 kts 302°
2026-05-08 04:50 47.33255 -122.08124 12351 ft 306 kts 302°
2026-05-08 04:51 47.34426 -122.10714 12109 ft 301 kts 302°
2026-05-08 04:51 47.35748 -122.13037 12048 ft 296 kts 320°
2026-05-08 04:51 47.37585 -122.14403 12008 ft 300 kts 344°
2026-05-08 04:51 47.39664 -122.14752 12009 ft 303 kts 356°
2026-05-08 04:52 47.41744 -122.14863 11991 ft 295 kts 356°
2026-05-08 04:52 47.43784 -122.14969 11985 ft 292 kts 356°
2026-05-08 04:52 47.45823 -122.15075 11727 ft 294 kts 356°
2026-05-08 04:52 47.47882 -122.15181 11304 ft 298 kts 356°
2026-05-08 04:53 47.49968 -122.15287 10869 ft 301 kts 356°
2026-05-08 04:53 47.52071 -122.15395 10442 ft 304 kts 356°
2026-05-08 04:53 47.54195 -122.15504 10016 ft 307 kts 356°
2026-05-08 04:53 47.56336 -122.15613 9552 ft 309 kts 356°
2026-05-08 04:54 47.58482 -122.15721 9072 ft 305 kts 356°
2026-05-08 04:54 47.60578 -122.15828 8613 ft 298 kts 357°
2026-05-08 04:54 47.62627 -122.15922 8153 ft 291 kts 357°
2026-05-08 04:54 47.64633 -122.16013 7706 ft 286 kts 357°
2026-05-08 04:55 47.66602 -122.16103 7248 ft 281 kts 357°
2026-05-08 04:55 47.68515 -122.16457 6748 ft 275 kts 339°
2026-05-08 04:55 47.70109 -122.17920 6248 ft 269 kts 312°
2026-05-08 04:55 47.71049 -122.20251 5740 ft 263 kts 285°
2026-05-08 04:56 47.71290 -122.22908 5257 ft 258 kts 269°
2026-05-08 04:56 47.70891 -122.25461 4750 ft 255 kts 241°
2026-05-08 04:56 47.69729 -122.27406 4248 ft 253 kts 215°
2026-05-08 04:56 47.68245 -122.28744 4141 ft 249 kts 210°
2026-05-08 04:57 47.66731 -122.30028 4045 ft 250 kts 210°
2026-05-08 04:57 47.65192 -122.31222 3999 ft 250 kts 200°
2026-05-08 04:57 47.63484 -122.31689 3778 ft 252 kts 182°
2026-05-08 04:57 47.61724 -122.31688 3448 ft 253 kts 180°
2026-05-08 04:58 47.59959 -122.31683 3112 ft 254 kts 181°
2026-05-08 04:58 47.58193 -122.31694 2775 ft 252 kts 180°
2026-05-08 04:58 47.56517 -122.31706 2471 ft 229 kts 180°
2026-05-08 04:58 47.55024 -122.31718 2206 ft 199 kts 180°
2026-05-08 04:59 47.53731 -122.31729 1919 ft 175 kts 180°
2026-05-08 04:59 47.52581 -122.31739 1703 ft 155 kts 180°
2026-05-08 04:59 47.51528 -122.31747 1481 ft 148 kts 180°
2026-05-08 04:59 47.50506 -122.31756 1283 ft 146 kts 180°
2026-05-08 05:00 47.49489 -122.31764 1067 ft 146 kts 180°
2026-05-08 05:00 47.48471 -122.31772 868 ft 147 kts 179°
2026-05-08 05:00 47.47440 -122.31783 678 ft 149 kts 180°
2026-05-08 05:00 47.46396 -122.31789 474 ft 151 kts 179°
2026-05-08 05:01 47.45421 -122.31797 402 ft 116 kts 180°
2026-05-08 05:01 47.44853 -122.31800 393 ft 63 kts 179°
2026-05-08 05:01 47.44513 -122.31674 379 ft 23 kts 153°
2026-05-08 05:01 47.44450 -122.31626 377 ft 0 kts 152°
2026-05-08 05:02 47.44442 -122.31620 377 ft 4 kts 152°
2026-05-08 05:02 47.44391 -122.31579 377 ft 12 kts 151°
2026-05-08 05:03 47.44310 -122.31507 379 ft 14 kts 143°
2026-05-08 05:03 47.44243 -122.31394 381 ft 15 kts 138°
2026-05-08 05:03 47.44131 -122.31364 379 ft 19 kts 181°
2026-05-08 05:03 47.44028 -122.31366 374 ft 15 kts 180°
2026-05-08 05:04 47.43921 -122.31366 372 ft 16 kts 180°
2026-05-08 05:04 47.43820 -122.31319 372 ft 8 kts 120°
2026-05-08 05:04 47.43808 -122.31234 373 ft 10 kts 92°
2026-05-08 05:04 47.43809 -122.31096 374 ft 18 kts 88°
2026-05-08 05:05 47.43805 -122.30881 377 ft 22 kts 90°
2026-05-08 05:05 47.43806 -122.30718 378 ft 13 kts 89°
2026-05-08 05:05 47.43811 -122.30628 381 ft 7 kts 58°
2026-05-08 05:05 47.43848 -122.30620 382 ft 6 kts 342°
2026-05-08 05:06 47.43896 -122.30638 383 ft 8 kts 355°
2026-05-08 05:06 47.43962 -122.30636 385 ft 13 kts
2026-05-08 05:06 47.44019 -122.30540 387 ft 12 kts
2026-05-08 05:06 47.44074 -122.30543 388 ft 12 kts
2026-05-08 05:07 47.44126 -122.30541 390 ft 2 kts
2026-05-08 05:07 47.44148 -122.30540 390 ft 9 kts
2026-05-08 05:07 47.44164 -122.30499 391 ft 4 kts 101°
2026-05-08 05:07 47.44164 -122.30466 392 ft 2 kts 91°
2026-05-08 05:08 47.44163 -122.30461 392 ft 1 kts 91°
2026-05-08 05:08 47.44163 -122.30452 392 ft 0 kts 91°